Terminal Aerodrome Forecast
Issued by NWS

Home | Current Version | Previous Version | Text Only | Print | Product List | Glossary On
Versions: 1 2 3 4 5 6 7 8 9 10 11 12 13 14 15 16 17
000
FTUS43 KGLD 131600 AAB
TAFMCK
TAF AMD
KMCK 131608Z 1316/1412 01025G35KT 2SM -SN OVC007
     FM132200 36023G32KT 3SM -SN OVC010
     FM140300 35016KT P6SM BKN050 OVC200=

USA.gov is the U.S. government's official web portal to all federal, state and local government web resources and services.